[[{"header":{"parameterUnit":"m.s-1","parameterCategory":1,"la1":30.2991,"la2":30.254,"lo1":-89.0895,"lo2":-89.0444,"dy":0.0017,"dx":0.0017,"nx":28,"ny":28,"refTime":"2025-05-01T03:00:00:Z","depth":0,"parameterNumber":2,"parameterNumberName":"U-component_of_WINDS"},"data":[0,0,0,0,0,0,0,0,0,0,0,0,0,0,0,0,0,0,0,0,0,0,0,0,0,0,0,0,0,0,0,0,0,0,0,0,0,0,0,0,0,0,0,0,0,0,0,0,0,0,0,0,0,0,0,0,0,0,0.9527,0.9528,0,0.965,0.9652,0.9653,0.973,0.9731,0.9731,0.9731,0.9854,0.9857,0.986,0,0,0,0,0,0,0,0,0,0,0,0,0,0.935,0.9353,0.9527,0.9528,0.953,0.965,0.9652,0.9654,0.973,0.9731,0.9731,0.9732,0.9853,0.9857,0.986,0,0,0,0,0,0,0,0,0,0,0,0,0,0.9445,0.9354,0.9526,0.9582,0.9589,0.965,0.9652,0.9654,0.973,0.9731,0.9731,0.9732,0.9852,0.9856,0.9861,0.9875,0,0,0.9874,0.9876,0,0,0,0,0,0,0,0,0.944,0.9452,0.9573,0.9579,0.9586,0.9676,0.9635,0.9728,0.973,0.9676,0.9731,0.9732,0.9794,0.9803,0.9825,0.988,0.9886,0.9874,0.9877,0.9879,0.988,0,0,0,0,0,0,0,0.9433,0.9447,0.9576,0.9574,0.9582,0.9599,0.9614,0.9653,0.973,0.9681,0.9687,0.9701,0.9798,0.9821,0.9828,0.9888,0.9874,0.9878,0.9881,0.9882,0.9956,0.9955,0,0,0,0,0,0,0.9418,0.9441,0.9572,0.9579,0.9513,0.9602,0.9618,0.9646,0.973,0.9743,0.97,0.9704,0.9813,0.9823,0.9833,0.9853,0.9879,0.9883,0.9885,0.9956,0.9956,0.9955,0,0,0,0,0,0,0.9414,0.9429,0.9567,0.9512,0.9531,0.9604,0.9635,0.9648,0.9671,0.9744,0.9758,0.971,0.9814,0.9827,0.9863,0.9858,0.9885,0.9889,0.9957,0.9956,0.9955,0.9893,0,0,0,0,0,0,0.9409,0.9427,0.9435,0.9511,0.9533,0.9596,0.9635,0.965,0.9679,0.9685,0.9757,0.9769,0.9815,0.9856,0.9867,0.9864,0.9892,0.9958,0.9957,0.9956,0.9896,0.989,0.9885,0,0,0,0,0,0.9402,0.9413,0.9436,0.9451,0.9545,0.9596,0.9608,0.9662,0.9678,0.9685,0.9731,0.9767,0.9856,0.9859,0.9872,0.9871,0.9959,0.9957,0.9956,0.9898,0.9891,0.9885,0,0,0,0,0,0,0.9335,0.9424,0.945,0.9486,0.9533,0.9609,0.962,0.9654,0.9696,0.97,0.9764,0.9779,0.9808,0.9843,0.9845,0.9886,0.9911,0.9912,0.9863,0.9857,0.9851,0.9842,0.9896,0,0,0,0,0,0.9324,0.936,0.9435,0.9459,0.9482,0.9546,0.9571,0.9608,0.9659,0.9679,0.9728,0.9774,0.9812,0.9836,0.9876,0.99,0.9915,0.9905,0.99,0.9895,0.9895,0.9907,0.9903,0.995,0.995,0.995,0,0,0.9302,0.9355,0.9374,0.9447,0.9488,0.9521,0.9563,0.9597,0.9622,0.9684,0.9721,0.9757,0.9813,0.9842,0.9858,0.9872,0.9885,0.9893,0.9889,0.9892,0.9905,0.99,0.9896,0.9949,0.9949,0.995,0,0,0.928,0.9324,0.9348,0.9387,0.9448,0.949,0.9495,0.9566,0.9593,0.9631,0.9677,0.9705,0.9771,0.9808,0.9835,0.982,0.9853,0.9831,0.9803,0.9814,0.981,0.9807,0.98,0.9797,0.9831,0.9831,0.9831,0,0.9245,0.9299,0.9356,0.9387,0.9416,0.9472,0.9495,0.953,0.96,0.9617,0.9633,0.9713,0.9755,0.9792,0.9788,0.9809,0.9815,0.9824,0.9806,0.9804,0.9802,0.9795,0.9793,0.9828,0.9828,0.9828,0.9829,0,0.9251,0.9287,0.9299,0.9365,0.9395,0.9421,0.948,0.9503,0.9536,0.9575,0.9611,0.9662,0.9711,0.9723,0.9756,0.9763,0.977,0.9795,0.9821,0.9793,0.9788,0.9786,0.9823,0.9824,0.9825,0.9826,0,0,0.9193,0.9287,0.929,0.9319,0.9388,0.9416,0.9443,0.9491,0.9509,0.9553,0.9576,0.9628,0.965,0.968,0.9717,0.9727,0.9708,0.975,0.9752,0.9739,0.9716,0.9697,0.9693,0.973,0.973,0.973,0.9711,0,0.918,0.9233,0.9283,0.9317,0.9349,0.9401,0.9424,0.9467,0.9503,0.9534,0.9573,0.9608,0.9636,0.9654,0.9666,0.9708,0.9705,0.971,0.975,0.975,0.9734,0.9691,0.9672,0.9652,0.971,0.9709,0.9709,0,0.9173,0.9215,0.9252,0.9314,0.9329,0.9349,0.9395,0.9425,0.9473,0.9498,0.953,0.9568,0.9596,0.9618,0.9655,0.9657,0.9676,0.9698,0.9698,0.9704,0.9728,0.9694,0.9647,0.9643,0.9707,0.9707,0.9707,0,0.9124,0.919,0.922,0.9243,0.9317,0.9329,0.936,0.9409,0.9433,0.9472,0.9488,0.953,0.9552,0.9582,0.9629,0.9641,0.966,0.9687,0.968,0.9678,0.9682,0.9681,0.9636,0.9694,0.9694,0.9695,0.9695,0,0.9105,0.9125,0.9199,0.9217,0.924,0.9295,0.9315,0.935,0.9392,0.9416,0.9463,0.9484,0.9545,0.9572,0.9608,0.9632,0.9642,0.9661,0.9671,0.9657,0.9654,0.967,0.9672,0.9694,0.9694,0.9694,0.9694,0,0.9055,0.9106,0.9142,0.9207,0.9223,0.9237,0.9292,0.931,0.9347,0.9377,0.9387,0.9445,0.9479,0.9528,0.9577,0.9602,0.9619,0.9634,0.9603,0.9608,0.9598,0.9597,0.9561,0.9558,0.9618,0.9618,0.9617,0,0.904,0.9056,0.9122,0.9142,0.9171,0.9202,0.9227,0.928,0.9303,0.9356,0.9367,0.9404,0.9437,0.9488,0.9534,0.957,0.9587,0.9571,0.9592,0.9577,0.9584,0.9583,0.9583,0.9566,0.9565,0.9564,0.9564,0,0.9005,0.9028,0.9063,0.9104,0.9132,0.9167,0.9205,0.9217,0.9277,0.93,0.9336,0.9361,0.941,0.9445,0.9487,0.9516,0.9549,0.9556,0.9556,0.9542,0.9523,0.9531,0.9588,0.9557,0.9558,0.9558,0.9559,0.9559,0.8972,0.8987,0.9035,0.9071,0.9104,0.9136,0.9155,0.9194,0.9225,0.9269,0.9298,0.933,0.9373,0.9433,0.946,0.9484,0.9498,0.9499,0.9499,0.9498,0.9492,0.9518,0.9492,0.9493,0.9493,0.9493,0.9493,0,0.8939,0.8971,0.9003,0.9053,0.9079,0.9107,0.9148,0.9168,0.9197,0.9235,0.9265,0.9303,0.9337,0.9383,0.9419,0.943,0.9445,0.9437,0.9437,0.9442,0.9479,0.9475,0.9424,0.9424,0.9424,0.9424,0.9424,0.9424,0.8925,0.8952,0.8979,0.9021,0.9053,0.9087,0.9107,0.9136,0.9166,0.9207,0.9235,0.9265,0.9305,0.9343,0.9374,0.9386,0.9397,0.9384,0.94,0.9434,0.944,0.9446,0.9442,0.9386,0.9386,0.9362,0.9361,0.9361]},{"header":{"parameterUnit":"m.s-1","parameterCategory":1,"la1":30.2991,"la2":30.254,"lo1":-89.0895,"lo2":-89.0444,"dy":0.0017,"dx":0.0017,"nx":28,"ny":28,"refTime":"2025-05-01T03:00:00:Z","depth":0,"parameterNumber":3,"parameterNumberName":"V-component_of_WINDS"},"data":[0,0,0,0,0,0,0,0,0,0,0,0,0,0,0,0,0,0,0,0,0,0,0,0,0,0,0,0,0,0,0,0,0,0,0,0,0,0,0,0,0,0,0,0,0,0,0,0,0,0,0,0,0,0,0,0,0,0,4.1424,4.1426,0,4.1542,4.1543,4.1545,4.153,4.1528,4.1526,4.1525,4.1648,4.1653,4.1658,0,0,0,0,0,0,0,0,0,0,0,0,0,4.1188,4.1193,4.1424,4.1426,4.1427,4.1542,4.1543,4.1545,4.1531,4.1528,4.1526,4.1524,4.1646,4.1652,4.1658,0,0,0,0,0,0,0,0,0,0,0,0,0,4.1297,4.1194,4.1424,4.1434,4.1436,4.1541,4.1543,4.1545,4.1531,4.1528,4.1525,4.1523,4.1644,4.1652,4.1659,4.1763,0,0,4.1682,4.1686,0,0,0,0,0,0,0,0,4.1291,4.1306,4.1431,4.1433,4.1436,4.1518,4.1505,4.1619,4.1532,4.1495,4.1525,4.1521,4.1607,4.1618,4.1646,4.1769,4.1774,4.1683,4.1688,4.1691,4.1693,0,0,0,0,0,0,0,4.1283,4.13,4.1471,4.1433,4.1436,4.1433,4.1445,4.1527,4.1566,4.1498,4.1497,4.1511,4.1608,4.1639,4.1649,4.1776,4.1683,4.169,4.1694,4.1697,4.1989,4.1992,0,0,0,0,0,0,4.1273,4.1294,4.1467,4.1474,4.1355,4.1439,4.1453,4.1495,4.1565,4.1573,4.1514,4.151,4.1627,4.164,4.1653,4.1779,4.1691,4.1698,4.1702,4.1986,4.199,4.1993,0,0,0,0,0,0,4.1268,4.1289,4.1462,4.1384,4.1406,4.1446,4.1494,4.1499,4.1529,4.1577,4.1584,4.1538,4.1626,4.1643,4.1736,4.1783,4.1701,4.1708,4.1982,4.1987,4.1991,4.2031,0,0,0,0,0,0,4.1261,4.1287,4.1327,4.1385,4.141,4.1542,4.1496,4.1503,4.1542,4.1539,4.1601,4.1609,4.1625,4.1724,4.1743,4.1792,4.1714,4.1978,4.1984,4.199,4.2025,4.2036,4.2045,0,0,0,0,0,4.1253,4.1334,4.1329,4.135,4.1461,4.1545,4.1559,4.1575,4.1546,4.1586,4.1616,4.1607,4.1775,4.1734,4.1755,4.1807,4.1975,4.1982,4.1989,4.2021,4.2034,4.2045,0,0,0,0,0,0,4.1281,4.1342,4.1337,4.1439,4.1487,4.1542,4.1594,4.1589,4.1647,4.1641,4.1659,4.1674,4.1767,4.1796,4.175,4.191,4.1871,4.1883,4.1888,4.1901,4.191,4.1901,4.1721,0,0,0,0,0,4.1299,4.1362,4.1412,4.1497,4.1521,4.1553,4.1591,4.1599,4.1649,4.167,4.1707,4.1757,4.1821,4.1862,4.1924,4.203,4.2043,4.2076,4.2086,4.2094,4.2103,4.216,4.2175,4.2017,4.2017,4.2017,0,0,4.1337,4.1378,4.1417,4.1504,4.1542,4.1606,4.1571,4.1641,4.1689,4.1681,4.177,4.1799,4.1856,4.1955,4.2001,4.1983,4.215,4.2103,4.2109,4.2114,4.2169,4.2184,4.2197,4.2022,4.2021,4.202,0,0,4.1439,4.1477,4.1551,4.159,4.1647,4.1668,4.1685,4.1742,4.176,4.185,4.1844,4.1902,4.2012,4.2053,4.2087,4.2203,4.2196,4.2223,4.2276,4.2331,4.2343,4.2354,4.2394,4.2408,4.2233,4.2233,4.2233,0,4.1479,4.1576,4.159,4.1661,4.1699,4.1693,4.1768,4.1805,4.188,4.1907,4.1885,4.2022,4.206,4.2168,4.2196,4.2225,4.2245,4.2216,4.234,4.2351,4.2362,4.24,4.2415,4.2236,4.2235,4.2235,4.2235,0,4.1622,4.1689,4.1742,4.1813,4.1857,4.193,4.1956,4.1999,4.2003,4.2026,4.2116,4.2162,4.2232,4.2258,4.2263,4.2367,4.2353,4.2336,4.2296,4.2379,4.2415,4.243,4.224,4.2239,4.2238,4.2237,0,0,4.1745,4.1822,4.1841,4.1873,4.1935,4.1987,4.206,4.2127,4.2163,4.2215,4.2275,4.2368,4.2351,4.2391,4.2401,4.2449,4.2536,4.2425,4.2427,4.2443,4.2651,4.2663,4.268,4.2532,4.2535,4.2537,4.2646,0,4.1852,4.1979,4.1993,4.2106,4.2168,4.2163,4.2225,4.2271,4.2294,4.235,4.2376,4.244,4.2414,4.2438,4.2486,4.2515,4.2578,4.2508,4.2588,4.2591,4.2573,4.2699,4.2712,4.2812,4.266,4.2663,4.2664,0,4.1994,4.2048,4.2167,4.2219,4.2245,4.2302,4.2363,4.2417,4.2468,4.2481,4.2525,4.2528,4.2602,4.256,4.2663,4.2615,4.2649,4.2668,4.2672,4.268,4.2632,4.2708,4.2845,4.2859,4.2687,4.2685,4.2684,0,4.207,4.2173,4.2257,4.2284,4.2348,4.2387,4.2415,4.2463,4.2502,4.2557,4.2582,4.2645,4.2679,4.2728,4.2748,4.2715,4.2849,4.2809,4.2862,4.2861,4.2889,4.2887,4.3032,4.2913,4.2913,4.2913,4.2912,0,4.2188,4.226,4.2292,4.2343,4.2424,4.244,4.252,4.2547,4.2589,4.2646,4.2646,4.2699,4.2722,4.2779,4.2796,4.2877,4.2893,4.2906,4.2909,4.2905,4.2904,4.2927,4.292,4.2917,4.2916,4.2915,4.2914,0,4.2286,4.231,4.2401,4.2453,4.2468,4.2525,4.257,4.262,4.2642,4.2713,4.2731,4.2766,4.2833,4.2858,4.294,4.2951,4.3045,4.3043,4.3027,4.3027,4.3078,4.3073,4.3242,4.3265,4.3132,4.3134,4.3135,0,4.2359,4.2414,4.2472,4.2509,4.2539,4.2599,4.2638,4.2656,4.2697,4.2758,4.28,4.2867,4.292,4.3027,4.3061,4.3123,4.3122,4.3177,4.3132,4.3125,4.3121,4.3117,4.3122,4.3185,4.3187,4.3188,4.3189,0,4.2485,4.2494,4.255,4.261,4.2656,4.2705,4.2752,4.2782,4.2807,4.2853,4.2921,4.2962,4.3045,4.311,4.3174,4.3204,4.3201,4.3203,4.3218,4.3214,4.3202,4.3208,4.3049,4.3199,4.3198,4.3197,4.3197,4.3196,4.2572,4.2621,4.2668,4.273,4.2767,4.281,4.2859,4.2887,4.2943,4.3011,4.3018,4.309,4.3139,4.3224,4.3256,4.3313,4.3299,4.3321,4.3327,4.3332,4.3334,4.3194,4.3325,4.3325,4.3325,4.3325,4.3324,0,4.2697,4.2727,4.2784,4.2849,4.2897,4.2889,4.294,4.2981,4.3045,4.309,4.3142,4.3219,4.3282,4.332,4.3383,4.3422,4.3422,4.3438,4.3434,4.3441,4.3345,4.3325,4.3436,4.3436,4.3436,4.3436,4.3436,4.3436,4.2768,4.2848,4.2863,4.2961,4.2991,4.3061,4.3091,4.3131,4.3166,4.3252,4.3304,4.3327,4.3369,4.3436,4.3493,4.3502,4.3525,4.3542,4.355,4.346,4.3448,4.3437,4.3418,4.3548,4.3548,4.3642,4.3643,4.3643]}]]